Date String (YYYY-MM-DD hh:mm:ss) UTC,Instrument flags,Ambient pressure (hPa),Sample flow (lpm),Bypass flow (lpm),Sample temperature (°C),Ambient temperature (°C),ASC tube jacket temperature (°C),LED temperature (°C),Box temperature (°C),Sample RH (%),Span deviation,Mass concentration (μg/m³),Mass concentration (μg/m³),Mass concentration (μg/m³)
DateTimeUTC,F1_M11,P_M11,Q1_M11,Q2_M11,T1_M11,T2_M11,T3_M11,T4_M11,T5_M11,U1_M11,ZSPAN_M11,X2_M11,X0_M11,X1_M11
2022-03-19 20:00:00,,0825.2,5.00,0.00,25.4,24.8,00.0,34.3,27.3,07.7,0000.0,0004.66,0010.83,0003.05
2022-03-19 20:01:00,,0825.2,5.02,0.00,25.5,24.8,00.0,34.3,27.3,07.9,0000.0,0004.67,0010.89,0003.06
2022-03-19 20:02:00,,0825.1,4.99,0.00,25.5,24.8,00.0,34.3,27.3,07.5,0000.0,0004.67,0010.87,0003.05
2022-03-19 20:03:00,,0825.1,5.00,0.00,25.5,24.8,00.0,34.3,27.3,07.6,0000.0,0004.66,0010.82,0003.03
2022-03-19 20:04:00,,0825.1,5.00,0.00,25.5,24.8,00.0,34.3,27.3,07.5,0000.0,0004.68,0010.68,0003.07
2022-03-19 20:05:00,,0825.0,5.01,0.00,25.5,24.8,00.0,34.4,27.3,07.4,0000.0,0004.68,0009.82,0003.09
2022-03-19 20:06:00,,0825.1,4.98,0.00,25.5,24.9,00.0,34.4,27.4,08.0,0000.0,0004.71,0009.71,0003.12
2022-03-19 20:07:00,,0825.0,5.01,0.00,25.5,24.9,00.0,34.4,27.4,07.9,0000.0,0004.71,0009.72,0003.13
2022-03-19 20:08:00,,0825.1,4.99,0.00,25.5,24.9,00.0,34.4,27.4,07.7,0000.0,0004.69,0010.42,0003.14
2022-03-19 20:09:00,,0825.0,4.99,0.00,25.5,24.9,00.0,34.4,27.4,07.5,0000.0,0004.60,0010.30,0003.14
2022-03-19 20:10:00,,0824.9,5.01,0.00,25.6,24.9,00.0,34.4,27.4,07.9,0000.0,0004.56,0010.40,0003.14
2022-03-19 20:11:00,,0824.8,4.99,0.00,25.6,24.9,00.0,34.4,27.4,07.7,0000.0,0004.57,0010.48,0003.15
2022-03-19 20:12:00,,0824.9,5.02,0.00,25.6,24.9,00.0,34.4,27.4,08.1,0000.0,0004.58,0010.60,0003.15
2022-03-19 20:13:00,,0824.9,4.99,0.00,25.6,25.0,00.0,34.5,27.4,08.2,0000.0,0004.59,0010.65,0003.15
2022-03-19 20:14:00,,0824.8,4.99,0.00,25.6,25.0,00.0,34.5,27.5,07.9,0000.0,0004.63,0010.88,0003.17
2022-03-19 20:15:00,,0824.8,5.02,0.00,25.7,25.0,00.0,34.5,27.5,08.1,0000.0,0004.65,0011.07,0003.17
2022-03-19 20:16:00,,0824.7,4.99,0.00,25.7,25.0,00.0,34.5,27.5,08.0,0000.0,0004.68,0011.18,0003.18
2022-03-19 20:17:00,,0824.7,5.00,0.00,25.7,25.0,00.0,34.5,27.5,07.6,0000.0,0004.72,0011.27,0003.18
2022-03-19 20:18:00,,0824.6,5.01,0.00,25.7,25.0,00.0,34.5,27.5,07.7,0000.0,0004.74,0011.80,0003.19
2022-03-19 20:19:00,,0824.7,4.99,0.00,25.7,25.0,00.0,34.5,27.6,07.6,0000.0,0004.80,0011.72,0003.19
2022-03-19 20:20:00,,0824.7,5.00,0.00,25.7,25.0,00.0,34.5,27.6,07.6,0000.0,0004.84,0012.05,0003.19
2022-03-19 20:21:00,,0824.6,5.01,0.00,25.7,25.0,00.0,34.6,27.6,07.4,0000.0,0004.88,0012.10,0003.21
2022-03-19 20:22:00,,0824.6,4.99,0.00,25.7,25.0,00.0,34.6,27.6,07.7,0000.0,0004.83,0011.85,0003.21
2022-03-19 20:23:00,,0824.7,5.00,0.00,25.7,25.1,00.0,34.6,27.6,08.4,0000.0,0004.85,0011.82,0003.23
2022-03-19 20:24:00,,0824.7,4.99,0.00,25.8,25.1,00.0,34.6,27.6,08.0,0000.0,0004.88,0011.94,0003.24
2022-03-19 20:25:00,,0824.6,5.00,0.00,25.8,25.1,00.0,34.6,27.6,07.8,0000.0,0004.88,0011.92,0003.24
2022-03-19 20:26:00,,0824.6,5.01,0.00,25.8,25.1,00.0,34.6,27.6,07.9,0000.0,0004.91,0011.93,0003.25
2022-03-19 20:27:00,,0824.6,4.99,0.00,25.8,25.1,00.0,34.6,27.6,07.8,0000.0,0004.89,0011.87,0003.25
2022-03-19 20:28:00,,0824.6,4.99,0.00,25.8,25.1,00.0,34.6,27.6,07.6,0000.0,0004.87,0011.91,0003.24
2022-03-19 20:29:00,,0824.5,5.01,0.00,25.8,25.1,00.0,34.7,27.6,07.6,0000.0,0004.86,0011.43,0003.24
2022-03-19 20:30:00,,0824.5,5.01,0.00,25.8,25.1,00.0,34.7,27.7,07.7,0000.0,0004.88,0011.32,0003.25
2022-03-19 20:31:00,,0824.5,4.99,0.00,25.8,25.1,00.0,34.7,27.7,07.9,0000.0,0004.93,0011.17,0003.26
2022-03-19 20:32:00,,0824.4,4.99,0.00,25.8,25.2,00.0,34.7,27.7,08.2,0000.0,0004.88,0010.84,0003.27
2022-03-19 20:33:00,,0824.4,5.01,0.00,25.8,25.2,00.0,34.7,27.7,07.9,0000.0,0004.92,0010.95,0003.27
2022-03-19 20:34:00,,0824.4,4.99,0.00,25.8,25.1,00.0,34.7,27.7,07.5,0000.0,0004.93,0011.43,0003.28
2022-03-19 20:35:00,,0824.4,5.01,0.00,25.8,25.1,00.0,34.7,27.7,07.9,0000.0,0004.91,0011.40,0003.29
2022-03-19 20:36:00,,0824.3,5.00,0.00,25.9,25.2,00.0,34.7,27.7,07.6,0000.0,0004.92,0011.47,0003.29
2022-03-19 20:37:00,,0824.3,5.00,0.00,25.9,25.2,00.0,34.7,27.7,07.6,0000.0,0004.93,0011.49,0003.30
2022-03-19 20:38:00,,0824.3,5.00,0.00,25.9,25.2,00.0,34.8,27.7,07.7,0000.0,0004.94,0011.57,0003.31
2022-03-19 20:39:00,,0824.3,5.00,0.00,25.9,25.2,00.0,34.8,27.7,07.9,0000.0,0004.95,0011.73,0003.32
2022-03-19 20:40:00,,0824.3,5.00,0.00,25.9,25.3,00.0,34.8,27.8,07.7,0000.0,0004.96,0012.22,0003.33
2022-03-19 20:41:00,,0824.3,5.01,0.00,25.9,25.3,00.0,34.8,27.8,07.6,0000.0,0004.96,0011.92,0003.32
2022-03-19 20:42:00,,0824.2,4.99,0.00,25.9,25.3,00.0,34.8,27.8,08.0,0000.0,0004.89,0011.72,0003.32
2022-03-19 20:43:00,,0824.3,5.00,0.00,26.0,25.3,00.0,34.8,27.8,08.7,0000.0,0004.97,0012.02,0003.31
2022-03-19 20:44:00,,0824.3,5.00,0.00,26.0,25.3,00.0,34.8,27.8,07.8,0000.0,0004.98,0012.08,0003.30
2022-03-19 20:45:00,,0824.2,5.01,0.00,26.0,25.3,00.0,34.8,27.8,08.3,0000.0,0004.97,0011.55,0003.30
2022-03-19 20:46:00,,0824.2,5.00,0.00,26.0,25.3,00.0,34.8,27.8,08.4,0000.0,0004.96,0011.43,0003.29
2022-03-19 20:47:00,,0824.1,5.00,0.00,26.0,25.3,00.0,34.8,27.9,08.0,0000.0,0004.96,0011.34,0003.31
2022-03-19 20:48:00,,0824.1,4.99,0.00,26.0,25.3,00.0,34.9,27.9,07.9,0000.0,0004.98,0011.39,0003.31
2022-03-19 20:49:00,,0824.2,5.01,0.00,26.0,25.3,00.0,34.9,27.9,07.1,0000.0,0005.08,0011.52,0003.32
2022-03-19 20:50:00,,0824.1,5.00,0.00,26.0,25.4,00.0,34.9,27.9,07.6,0000.0,0005.15,0011.98,0003.33
2022-03-19 20:51:00,,0824.2,5.01,0.00,26.1,25.4,00.0,34.9,27.9,07.0,0000.0,0005.18,0012.16,0003.34
2022-03-19 20:52:00,,0824.2,4.99,0.00,26.1,25.4,00.0,34.9,27.9,07.1,0000.0,0005.20,0012.11,0003.34
2022-03-19 20:53:00,,0824.1,5.02,0.00,26.1,25.4,00.0,34.9,27.9,06.8,0000.0,0005.30,0013.10,0003.35
2022-03-19 20:54:00,,0824.1,4.99,0.00,26.1,25.4,00.0,34.9,27.9,07.0,0000.0,0005.32,0013.20,0003.37
2022-03-19 20:55:00,,0824.2,5.00,0.00,26.1,25.4,00.0,34.9,27.9,06.8,0000.0,0005.31,0013.71,0003.38
2022-03-19 20:56:00,,0824.1,5.01,0.00,26.1,25.4,00.0,34.9,27.9,07.0,0000.0,0005.33,0013.88,0003.38
2022-03-19 20:57:00,,0824.1,5.00,0.00,26.1,25.4,00.0,35.0,27.9,07.4,0000.0,0005.37,0014.02,0003.38
2022-03-19 20:58:00,,0824.1,5.00,0.00,26.1,25.4,00.0,35.0,27.9,07.3,0000.0,0005.35,0013.93,0003.37
2022-03-19 20:59:00,,0824.1,5.00,0.00,26.1,25.5,00.0,35.0,27.9,08.3,0000.0,0005.35,0013.97,0003.36
